Regional Weather Roundup
Issued by NWS

Home | Current Version | Previous Version | Graphics & Text | Print | Product List | Glossary On
Versions: 1 2 3 4 5 6 7 8 9 10 11 12 13 14 15 16 17 18 19 20 21 22 23 24 25 26 27 28 29 30 31 32 33 34 35 36 37 38 39 40 41 42 43 44 45 46 47 48 49 50
000
ASUS45 KSLC 261010
RWRUT

UTAH REGIONAL WEATHER ROUNDUP
NATIONAL WEATHER SERVICE SALT LAKE CITY UT
300 AM MST SUN FEB 26 2017

UTZ001>011-023>025-261100-

NORTHERN UTAH

CITY           SKY/WX    TMP DP  RH WIND       PRES   REMARKS
BRIGHAM CITY     N/A     23  16  74 CALM      29.97F
HILL AFB       CLEAR     19  12  72 E8        29.95F WCI   9
LOGAN          CLEAR     13   7  77 CALM      29.96F
OGDEN          CLEAR     19  13  77 S9        29.95F WCI   8
SALT LAKE CITY PTCLDY    23  14  68 SE12      29.97F WCI  12
TOOELE VALLEY  CLEAR     21  14  73 S5        29.97F WCI  15
WENDOVER       CLEAR     21  12  68 W3        29.96F
HEBER CITY     MOCLDY     0  -6  78 E3        29.94F
WEST JORDAN    CLEAR     24  19  82 S7        29.97F WCI  15

$$

UTZ011>015-024>027-261100-

CENTRAL/NORTHEAST UTAH

CITY           SKY/WX    TMP DP  RH WIND       PRES   REMARKS
PROVO AIRPORT  PTCLDY    12   7  80 E5        30.00F WCI   4
MOAB/CANYONLAN CLEAR     24  10  55 NW7       29.93F WCI  16
DELTA          CLEAR     19  18  93 NE5       29.96F WCI  13
PRICE          PTCLDY    16   9  74 N8        29.90S WCI   5
RICHFIELD      PTCLDY    16  16 100 CALM      29.97F
ROOSEVELT      PTCLDY    12   3  67 CALM      29.96S
VERNAL         CLOUDY     3  -3  76 W5        29.93S WCI  -6

$$

UTZ013>016-019>022-027-261100-

SOUTHERN UTAH

CITY           SKY/WX    TMP DP  RH WIND       PRES   REMARKS
BRYCE CANYON   MOCLDY     8   4  83 NW6       29.88F WCI  -2
CEDAR CITY     MOCLDY    22  18  85 CALM      29.92F
MILFORD        CLOUDY    24  20  84 CALM      29.94F
ST GEORGE      MOSUNNY   33  22  63 CALM      29.96F
HANKSVILLE     CLEAR     23  14  68 CALM      29.98S
KANAB          CLEAR     27  21  80 E7        29.96F WCI  19
BLANDING       CLOUDY    22  17  80 N5        29.97S WCI  16

$$

REGIONAL REPORTS     COLORADO/ARIZONA

CITY           SKY/WX    TMP DP  RH WIND       PRES   REMARKS
CRAIG, CO      CLOUDY     8   3  80 W3        29.91S
GRAND JUNCTION CLEAR     16  11  80 CALM      29.94R
RIFLE, CO      CLOUDY    18  12  77 SE3       29.93F
MONTROSE, CO   CLOUDY    24  16  71 SE7       29.93S WCI  16
CORTEZ, CO     CLEAR     22  17  81 CALM      29.89F
COLORADO CITY    N/A     23  21  93 CALM      29.94F
PAGE, AZ       PTCLDY    38  12  34 W3        29.92S
GRAND CANYON   CLOUDY    27  20  75 CALM      29.92F
KINGMAN, AZ    CLOUDY    40  18  41 S3        29.89F
FLAGSTAFF, AZ  CLOUDY    27  21  78 W3        29.92F

$$

REGIONAL REPORTS    NEVADA/IDAHO/WYOMING

CITY           SKY/WX    TMP DP  RH WIND       PRES   REMARKS
LAS VEGAS, NV  PTCLDY    42  23  46 CALM      29.90F
ELY, NY        CLEAR      5   2  87 S10       29.91F WCI -10
ELKO, NV       CLEAR     18  13  80 CALM      29.92F
POCATELLO, ID  CLOUDY    15   8  73 SW7       29.92S WCI   5
BURLEY, ID     PTCLDY    23  10  57 S12       29.91F WCI  12
FORT BRIDGER,  SUNNY      3   0  85 W10       29.87F WCI -12
EVANSTON, WY   CLOUDY     4  -1  80 SW10      29.84F WCI -11
ROCK SPRINGS,  CLOUDY     9   2  73 W20       29.82F WCI -10
KEMMERER, WY     N/A      1  -4  78 W8        29.82F WCI -12

$$



USA.gov is the U.S. government's official web portal to all federal, state and local government web resources and services.